Details From GOOY - Dakar Leopold Sedar Senghor Intl
To DAAG - Alger Houari Boumediene
Flight Number -
Tags Standard
Created
Modified
Stats Distance 1,876 nm / 3,475 km
Max Altitude 3,281 ft / 1,000 m
Waypoints 16
Social Downloads 4
Likes 0
Share

Download

Looking for another format? Having issues loading an existing format? Contact us
Advertisement - Login to hide

Notes

Dep rwy 36 - Arr rwy 23

Route

+14.741_-017.485 YF060 YF175 KORAN NULET ERENA LOLOS ROYAL CABOJ KEMEX ERLAM SOVAL +35.440_-001.732 +36.997_+003.446 +36.891_+003.547 +36.811_+003.415

ID Type Via Altitude (ft/m) Position (lat/lon) Dist (leg/tot) Name
O +14.741_-017.485 LATLON - 0 / 0 14.74100 / -17.48500 - / 0 nm
YF060 FIX - 0 / 0 14.84094 / -17.50498 6 / 6 nm
YF175 FIX - 0 / 0 15.03794 / -17.47478 11 / 18 nm
KORAN FIX - 0 / 0 16.40833 / -17.36000 82 / 100 nm
NULET FIX - 0 / 0 18.41806 / -17.21667 120 / 221 nm
ERENA FIX - 0 / 0 19.97222 / -16.66778 98 / 320 nm
LOLOS FIX - 0 / 0 21.85833 / -16.67056 113 / 433 nm
ROYAL FIX - 0 / 0 25.00000 / -15.78674 194 / 628 nm
CABOJ FIX - 0 / 0 26.13889 / -14.64389 92 / 720 nm
KEMEX FIX - 0 / 0 31.01444 / -9.72000 391 / 1111 nm
ERLAM FIX - 0 / 0 32.91917 / -6.39000 204 / 1316 nm
SOVAL FIX - 0 / 0 34.17278 / -4.16889 134 / 1450 nm
+35.440_-001.732 LATLON - 3,281 / 1,000 35.43982 / -1.73229 142 / 1592 nm
+36.997_+003.446 LATLON - 3,281 / 1,000 36.99695 / 3.44634 267 / 1860 nm
+36.891_+003.547 LATLON - 3,281 / 1,000 36.89104 / 3.54721 7 / 1868 nm
O +36.811_+003.415 LATLON - 3,281 / 1,000 36.81074 / 3.41457 7 / 1876 nm

Altitude Profile

Advertisement - Login to hide

Weather


0- 5 10 15 20 25 30 35+ Temperature / °C

Clouds and Precipitation
Forecast for 2021-12-02 00:00 UTC. Updated 4 hours ago

Ground ~20,000 ft ~40,000 ft Winds

GOOY

Details ICAO GOOY (DKR)
Name Dakar - Leopold Sedar Senghor Intl
Region Senegal
Timezone Africa/Dakar (UTC+0.0)
Stats Elevation 84 ft / 26 m (AMSL)
Location 14.740100° -17.490400°
Runways 2
Magnetic Variation 6.899° W

METAR

GOOY 020000Z 36004KT 5000 DU NSC 23/21 Q1012

Decode

TAF

TAF GOOY 012300Z 0200/0306 36008KT 4000 DU NSC= TAF GOBD 012300Z 0200/0306 36014KT 4000 DU NSC

Decode

Departure Runways

ID Width Length Bearing (true/mag) Surface Threshold Overrun Markings Lighting
03 98 ft / 30 m 4,916 ft / 1,498 m 22.33° / 29.23° ASPHALT 0 ft / 0 m 98 ft / 30 m APP
18 148 ft / 45 m 11,483 ft / 3,500 m 172.61° / 179.51° ASPHALT 525 ft / 160 m 220 ft / 67 m APP EDGE THRESHOLD
21 98 ft / 30 m 4,916 ft / 1,498 m 202.33° / 209.23° ASPHALT 0 ft / 0 m 1,591 ft / 485 m APP
36 148 ft / 45 m 11,483 ft / 3,500 m 352.61° / 359.51° ASPHALT 0 ft / 0 m 213 ft / 65 m PREC-APP EDGE THRESHOLD ALSF-I

DAAG

Details ICAO DAAG (ALG)
Name Alger/Houari Boumediene
Region Algeria
Timezone Africa/Algiers (UTC+1.0)
Stats Elevation 82 ft / 25 m (AMSL)
Location 36.697500° 3.212250°
Runways 2
Magnetic Variation 1.461° E

METAR

DAAG 020100Z 25011KT 9999 FEW023 SCT200 14/06 Q1013

Decode

TAF

TAF TAF DAAG 012300Z 0200/0224 26008KT 9999 FEW020 PROB30 TEMPO 0202/0206 FEW023TCU BECMG 0206/0209 FEW023TCU TEMPO 0207/0220 FEW026CB PROB40 TEMPO 0208/0218 4000 RA FEW026CB PROB30 TEMPO 0210/0214 26015G30KT 2000 SHRA BKN015 SCT026CB BECMG 0220/0223 34010KT

Decode

Destination Runways

ID Width Length Bearing (true/mag) Surface Threshold Overrun Markings Lighting
05 197 ft / 60 m 11,494 ft / 3,503 m 52.68° / 51.22° CONCRETE 0 ft / 0 m 0 ft / 0 m PREC-APP CENTERLINE CALVERT
09 148 ft / 45 m 12,468 ft / 3,800 m 91.69° / 90.23° CONCRETE 984 ft / 300 m 0 ft / 0 m PREC-APP CENTERLINE
23 197 ft / 60 m 11,494 ft / 3,503 m 232.70° / 231.24° CONCRETE 0 ft / 0 m 0 ft / 0 m PREC-APP CENTERLINE
27 148 ft / 45 m 12,468 ft / 3,800 m 271.72° / 270.26° CONCRETE 0 ft / 0 m 0 ft / 0 m PREC-APP CENTERLINE

Approach Navaids

Runway Type Ident Frequency Range Bearing (true/mag) Slope Elevation
09 GS HB 108.50 MHz 10 nm / 19 km 91.70° / 90.24 ° 3.00° 82 ft / 25 m (AMSL)
09 LOC-ILS HB 108.50 MHz 18 nm / 33 km 91.70° / 90.24 ° - 82 ft / 25 m (AMSL)
09 OM OM - - 91.77° / 90.30 ° - 82 ft / 25 m (AMSL)
23 MM MM - - 232.88° / 231.42 ° - 82 ft / 25 m (AMSL)
23 GS AG 110.30 MHz 10 nm / 19 km 232.70° / 231.24 ° 3.00° 82 ft / 25 m (AMSL)
23 LOC-ILS AG 110.30 MHz 18 nm / 33 km 232.70° / 231.24 ° - 82 ft / 25 m (AMSL)
23 OM OM - - 232.88° / 231.42 ° - 82 ft / 25 m (AMSL)
27 LOC-ILS AL 109.50 MHz 18 nm / 33 km 271.70° / 270.24 ° - 82 ft / 25 m (AMSL)
27 GS AL 109.50 MHz 10 nm / 19 km 271.70° / 270.24 ° 3.00° 82 ft / 25 m (AMSL)

Popular Alternatives